Location: Zihuatanejo
(17.6330°N, 101.5500°W)
Time: 05:51:16
(UTC-05:00)

Daily predictions for brighter satellites

Satellite Brightness Start Highest point End
(mag) Time Altitude Azimuth Time Altitude Azimuth Time Altitude Azimuth
H-2A ROCKET BODY 4.5 00:03:56 10° WNW 00:33:25 15° ESE 00:41:06 10° ESE
SL-16 R/B 4.5 03:40:35 24° NE 03:40:35 24° NE 03:43:35 10° NNE
Milstar 3 4.3 03:51:50 33° E 03:51:50 33° E 03:56:55 10° ESE
ATLAS 2AS CENTAUR R/B 3.7 04:14:19 43° N 04:14:19 43° N 04:19:43 10° NNE
Lacrosse 5 4.5 04:23:52 13° E 04:23:52 13° E 04:25:05 10° E
COSMOS 2428 4.3 04:27:37 29° N 04:27:37 29° N 04:30:20 10° NNE
CZ-2D R/B 4.4 04:20:56 10° N 04:22:07 16° N 04:22:07 16° N
Cosmos 2219 Rocket 3.6 04:28:26 35° NE 04:28:26 35° NE 04:31:51 10° NNE
Cosmos 2263 Rocket 4.4 04:22:54 10° NNW 04:24:05 17° NNW 04:24:05 17° NNW
Cosmos 2237 Rocket 3.9 04:30:03 27° E 04:30:03 27° E 04:34:06 10° NE
Cosmos 2333 Rocket 2.9 04:45:01 50° NE 04:45:01 50° NE 04:49:20 10° NNE
Atlas Centaur 2 3.8 04:48:38 21° ENE 04:48:38 21° ENE 04:50:22 10° ENE
Okean O Rocket 3.4 04:54:04 10° NE 04:57:47 28° E 04:57:47 28° E
Meteor 2-5 Rocket 4.0 04:52:15 10° N 04:57:13 66° NNE 04:57:13 66° NNE
NOSS 0 Rocket 3.9 05:01:21 81° ENE 05:01:21 81° ENE 05:07:20 10° NNE
ATLAS 2A CENTAUR R/B 4.3 05:05:14 15° NNE 05:05:14 15° NNE 05:05:49 10° NE
Meteor 1-24 Rocket 4.5 05:00:54 10° N 05:06:12 49° E 05:08:59 27° SE
Cosmos 2341 Rocket 4.3 05:10:20 54° NW 05:10:20 54° NW 05:15:43 10° N
Cosmos 2366 rocket 4.4 05:10:29 35° SSE 05:12:54 57° E 05:18:55 10° NNE
SL-16 R/B 3.9 05:12:36 18° SSE 05:15:41 28° ESE 05:20:27 10° NE
SL-16 R/B 4.4 05:25:41 14° NW 05:25:41 14° NW 05:26:44 10° NW
Tiangong 1 4.1 05:24:55 13° NNE 05:24:55 13° NNE 05:25:17 10° NE
MOS 1-B 4.3 05:17:43 10° N 05:23:26 61° WNW 05:23:30 61° WNW
Ariane H10+ 4.4 05:23:41 32° SSW 05:26:51 37° S 05:52:25 10° ESE
Atlas 2A Centaur Rocket 4.4 05:28:03 20° SSE 05:30:24 25° SE 05:41:56 10° ENE
Cosmos 2218 Rocket 3.9 05:29:54 47° SSW 05:31:51 80° W 05:38:09 10° N
Cosmos 864 Rocket 4.4 05:29:22 34° S 05:32:14 83° E 05:38:23 10° N
Cosmos 1503 Rocket 3.9 05:30:36 10° NNW 05:35:56 89° ENE 05:41:20 10° SSE
Palapa B4 Rocket 4.3 05:35:07 44° SSW 05:36:42 54° SSE 05:45:39 10° E
Centaur D-1AR AC-40 1.7 05:36:42 48° WNW 05:37:54 84° NNE 05:41:26 10° E
Cosmos 1340 Rocket 4.3 05:34:56 10° NNW 05:36:43 25° NNW 05:36:43 25° NNW
Delta 142 4.4 05:37:36 29° NNW 05:39:04 41° NNE 05:43:02 10° E
Cosmos 1356 Rocket 4.3 05:37:06 10° N 05:40:57 46° E 05:44:35 11° SSE
ADEOS II 2.3 05:40:11 10° N 05:45:12 47° WNW 05:45:50 45° W
Skynet4D Del rocket 4.2 05:42:55 39° WSW 05:45:51 80° NNW 05:53:45 10° ENE
Meteor PRIRODA 4.4 05:44:58 10° NNE 05:48:34 50° E 05:50:14 28° SSE
Cosmos 1758 4.0 05:50:44 37° NW 05:50:44 37° NW 05:53:47 10° NNW
PSLV R/B 3.6 05:45:51 10° N 05:50:07 54° WNW 05:50:33 52° WSW
Cosmos 1953 2.8 05:57:44 39° WNW 05:57:44 39° WNW 06:01:19 10° NNW
Cosmos 1932 4.5 05:51:48 10° NNW 05:58:14 85° ENE 06:04:30 10° SSE
Intelsat 5-1 Rocket 4.0 05:55:20 17° WNW 05:59:19 58° NNE 06:13:40 10° E
Geosat 4.4 05:55:20 10° N 06:00:05 44° WNW 06:01:41 33° WSW
IUS-9 SRM-1 3.0 06:00:45 38° SW 06:02:11 73° SSE 06:15:17 10° ENE
Lacrosse 5 2.4 06:03:06 32° W 06:04:46 42° NW 06:09:35 10° NNE
CZ-4B R/B 4.2 06:06:07 10° NNW 06:09:14 23° WNW 06:09:14 23° WNW
Cosmos 2219 Rocket 4.2 06:10:11 11° WNW 06:10:23 11° WNW 06:12:10 10° NW
NOSS 3-4 (A) 4.2 06:08:21 25° WSW 06:11:05 37° WNW 06:16:51 10° N
NOSS 3-4 (C) 4.1 06:08:23 25° WSW 06:11:09 37° WNW 06:16:57 10° N
Cosmos 2237 Rocket 3.4 06:11:55 21° W 06:13:15 23° WNW 06:17:38 10° NNW
Meteor 1-31 Rocket 2.6 06:09:26 10° N 06:13:17 84° W 06:16:22 16° SSW
RESURS DK-1 2.3 06:10:46 20° SSW 06:13:35 83° ESE 06:17:43 10° NNE
Cosmos-2242 2.9 06:09:52 13° S 06:13:40 88° W 06:17:56 10° N
Cosmos 1470 3.2 06:15:46 28° SW 06:17:16 40° W 06:20:59 10° NNW
Iridium 2 3.8 06:15:51 10° S 06:19:37 78° E 06:23:25 10° N
SeaSat 1 2.4 06:20:39 10° SSE 06:25:34 83° WSW 06:30:30 10° NNW
Palapa 6 Rocket 2.8 06:23:15 21° W 06:26:08 78° NNW 06:30:00 10° ENE
NOSS 2-2 (E) 3.2 06:23:26 17° SSW 06:26:28 79° WNW 06:30:28 10° NNE
Cosmos 2208 Rocket 4.2 06:23:08 10° S 06:28:18 76° ESE 06:33:32 10° NNE
CZ-4B R/B 4.2 06:26:02 10° NNW 06:30:47 29° WNW 06:34:33 14° SW
Milstar 3 4.3 06:25:29 13° W 06:32:28 39° SSW 06:45:51 10° SE
Cosmos 1842 Rocket 4.3 06:28:28 10° S 06:32:47 55° E 06:37:03 10° NNE
Cosmos 1844 Rocket 3.2 06:27:47 10° NW 06:32:57 37° WSW 06:38:06 10° S
Okean O Rocket 3.4 06:31:25 10° NW 06:33:55 15° WNW 06:35:14 13° W
SWIFT 2.6 06:31:29 16° W 06:34:43 48° SSW 06:38:51 10° ESE
Atlas Centaur 2 3.0 06:31:17 11° WNW 06:35:00 32° NNW 06:39:49 10° NE
Okean 3 Rocket 4.1 06:34:40 10° NNW 06:38:48 39° W 06:42:59 10° SSW
SOZ 4.1 06:39:07 10° NW 06:41:26 89° WSW 06:44:03 10° SE
Kakehashi 4.3 06:36:18 11° W 06:41:37 53° NNW 06:49:58 10° ENE
ISS -3.6 06:38:54 10° NNW 06:42:08 72° NE 06:45:23 10° SE
Ariane H10+ 3.5 06:39:12 10° SSW 06:42:35 26° SSE 06:52:57 10° E
USA 116 4.4 06:41:02 10° SSE 06:45:25 78° ENE 06:50:23 10° N
NOAA 6 4.0 06:41:44 10° N 06:46:49 75° WNW 06:51:55 10° SSW
Cosmos 1603 4.1 06:41:18 10° S 06:46:59 69° ESE 06:52:39 10° NNE
Centaur Rocket 3.8 06:45:15 12° SW 06:47:47 42° SSE 06:54:25 10° E
ATLAS 3B R/B 2.5 06:42:27 10° NNW 06:48:52 63° WSW 06:55:13 10° SSE
IRAS Rocket 4.2 06:46:31 10° N 06:52:00 71° WNW 06:57:31 10° SSW
Cosmos 1766 Rocket 3.7 06:52:07 10° NNW 06:56:28 55° W 07:00:47 10° S
Cosmos 2278 Rocket 2.2 06:51:52 10° NNW 06:57:30 70° WSW 07:03:07 10° S
Cosmos 1076 Rocket 4.4 06:54:06 10° NNW 06:57:46 29° W 07:01:27 10° SSW
SL-16 R/B 3.4 06:55:11 10° WSW 06:59:36 23° WNW 07:04:01 10° NNW
